Terminal Aerodrome Forecast
Issued by NWS Shreveport, LA

Home | Current Version | Previous Version | Text Only | Print | Product List | Glossary On
Versions: 1 2 3 4 5 6 7 8 9 10 11 12 13 14 15 16 17
000
FTUS44 KSHV 092341
TAFGGG
TAF
KGGG 092341Z 1000/1024 VRB03KT P6SM BKN060
      TEMPO 1000/1004 SCT060
     FM101400 11006KT P6SM SCT060 SCT250=

USA.gov is the U.S. government's official web portal to all federal, state and local government web resources and services.